Hourly Data Report for September 14, 2017

All times are specified in Local Standard Time (LST). Add 1 hour to adjust for Daylight Saving Time where and when it is observed.

EDMUNDSTON
NEW BRUNSWICK

47°25'00.000" N
68°19'28.040" W
154.20 m
8101303
71590
ERM

Download Data

Hourly Data (September 2017)
Hourly Data Report for September 14, 2017
Temp Definition
°C
Dew Point Temp Definition
°C
Rel Hum Definition
%
Wind Dir Definition
10's deg

Wind Spd Definition
km/h
Visibility Definition
km
Stn Press Definition
kPa
Hmdx Definition


Wind Chill Definition


Weather Definition


TIME
00:00 11.1 10.0 93 17 1   98.77     LegendNANA
01:00 10.0 9.1 94 0 1   98.78     LegendNANA
02:00 9.5 8.6 94   0   98.79     LegendNANA
03:00 9.1 8.2 95 35 3   98.79     LegendNANA
04:00 8.6 7.8 95   0   98.82     LegendNANA
05:00 8.4 7.7 95   0   98.88     LegendNANA
06:00 8.0 7.2 95   0   98.92     LegendNANA
07:00 8.3 7.7 96   0   98.99     LegendNANA
08:00 12.0 11.3 96   0   99.04     LegendNANA
09:00 16.4 13.0 80 11 2   99.07     LegendNANA
10:00 20.5 13.9 66 28 4   99.08     LegendNANA
11:00 22.5 14.1 59 30 8   99.09 26   LegendNANA
12:00 23.8 14.9 57 33 6   99.05 28   LegendNANA
13:00 23.5 14.2 56 32 7   99.04 27   LegendNANA
14:00 23.7 14.9 58 32 8   99.04 28   LegendNANA
15:00 24.3 14.0 53 31 8   99.04 28   LegendNANA
16:00 23.7 14.8 58 34 11   99.09 28   LegendNANA
17:00 22.9 13.6 56 33 11   99.13 26   LegendNANA
18:00 20.1 10.8 55 34 15   99.24     LegendNANA
19:00 16.1 8.9 63 32 3   99.33     LegendNANA
20:00 12.8 8.6 75 36 6   99.44     LegendNANA
21:00 10.5 7.7 83 35 3   99.51     LegendNANA
22:00 9.3 7.1 86 29 3   99.57     LegendNANA
23:00 7.7 6.5 92 28 1   99.66     LegendNANA

Notes on Data Quality.

Legend

  • E = Estimated
  • M = Missing
  • NA = Not Available
  • ‡ = Partner data that is not subject to review by the National Climate Archives
Date modified: